sat.trackr.live / text

‹ back to catalog

SENTINEL-3B

NORAD 43437 · 2018-039A

PAYLOAD ACTIVE UNKNOWN

§ Identity

Operator
Country
ESA
Launch date
2018-04-25
Launch site
PLMSC
Launch vehicle
Mass (kg)
RCS (m²)

Purposes: earth_obs

External: N2YO · Heavens-Above · Gunter

§ Orbital elements

Epoch: 2026-09-20T03:29:32.929728Z

Period
100.93 min
Inclination
98.6272°
Eccentricity
0.0001255
Mean motion
14.26738279 rev/d
Perigee alt
801.8 km
Apogee alt
803.6 km
Semi-major
7,180.8 km
B*
3.3229e-5
RAAN
329.3035°
Arg perigee
75.1152°
Mean anomaly
285.0167°
Rev number
43,766

§ Raw data

SENTINEL-3B1 43437U 18039A   26263.14552002  .00000037  00000+0  33229-4 0  99922 43437  98.6272 329.3035 0001255  75.1152 285.0167 14.26738279437660

JSON: /api/v1/satellites/43437 · /tle

For live sub-satellite position, see the globe view (requires WebGL).

§ Visibility from observer

Set your observer location to see the next 7 days of passes ≥ 10°. The values pass through the URL so the page stays shareable.

No JS? Fill the form by hand. The geolocation button needs JavaScript.